| time (UTC) | temp F | wind direction | speed MPH | gust MPH | rain 1hr in | rain 24hr in | rain mn in | humidity % | barometer mb |
| 20260507031532 | 44 | 271 | 0.0 | 2.0 | 0.04 | 0.67 | 0.67 | 97 | 1007.6 |
| 20260507030032 | 45 | 236 | 1.0 | 4.0 | 0.05 | 0.67 | 0.67 | 97 | 1007.6 |
| 20260507024534 | 45 | 0 | 0.0 | 2.0 | 0.04 | 0.66 | 0.66 | 96 | 1007.9 |
| 20260507023032 | 46 | 0 | 0.0 | 1.0 | 0.06 | 0.65 | 0.65 | 96 | 1007.8 |
| 20260507021533 | 46 | 0 | 0.0 | 3.0 | 0.06 | 0.63 | 0.63 | 96 | 1007.9 |
| 20260507020033 | 47 | 294 | 0.0 | 3.0 | 0.06 | 0.62 | 0.62 | 96 | 1007.9 |
| 20260507014532 | 47 | 0 | 0.0 | 4.0 | 0.07 | 0.62 | 0.62 | 96 | 1007.8 |
| 20260507013038 | 49 | 327 | 1.0 | 4.0 | 0.04 | 0.58 | 0.58 | 96 | 1007.2 |
| 20260507011539 | 50 | 0 | 0.0 | 1.0 | 0.02 | 0.57 | 0.57 | 96 | 1007.2 |
| 20260507010032 | 50 | 257 | 0.0 | 1.0 | 0.02 | 0.55 | 0.55 | 96 | 1006.8 |
| 20260507004531 | 51 | 0 | 0.0 | 2.0 | 0.07 | 0.55 | 0.55 | 96 | 1006.7 |
| 20260507003032 | 51 | 280 | 0.0 | 2.0 | 0.11 | 0.55 | 0.55 | 96 | 1006.3 |
| 20260507001536 | 52 | 0 | 0.0 | 1.0 | 0.16 | 0.55 | 0.55 | 96 | 1006.1 |
| 20260507000030 | 53 | 0 | 0.0 | 4.0 | 0.15 | 0.52 | 0.52 | 95 | 1005.8 |
| 20260506234541 | 56 | 286 | 0.0 | 2.0 | 0.09 | 0.47 | 0.47 | 97 | 1005.2 |
| 20260506233034 | 56 | 0 | 0.0 | 2.0 | 0.06 | 0.44 | 0.44 | 97 | 1004.7 |
| 20260506231535 | 57 | 240 | 0.0 | 1.0 | 0.02 | 0.39 | 0.39 | 96 | 1004.6 |
| 20260506230030 | 57 | 0 | 0.0 | 2.0 | 0.01 | 0.38 | 0.38 | 96 | 1004.4 |
| 20260506224532 | 57 | 0 | 0.0 | 3.0 | 0.01 | 0.38 | 0.38 | 96 | 1004.6 |
| 20260506223031 | 57 | 251 | 0.0 | 2.0 | 0.00 | 0.37 | 0.37 | 95 | 1004.6 |
| 20260506221529 | 58 | 244 | 0.0 | 2.0 | 0.00 | 0.37 | 0.37 | 94 | 1004.8 |
| 20260506220034 | 58 | 140 | 1.0 | 4.0 | 0.00 | 0.37 | 0.37 | 94 | 1004.6 |
| 20260506214533 | 58 | 223 | 1.0 | 3.0 | 0.00 | 0.37 | 0.37 | 94 | 1004.7 |
| 20260506213033 | 58 | 0 | 1.0 | 3.0 | 0.00 | 0.37 | 0.37 | 94 | 1004.6 |
| 20260506211536 | 59 | 236 | 1.0 | 3.0 | 0.00 | 0.37 | 0.37 | 95 | 1004.7 |
| 20260506210031 | 58 | 191 | 1.0 | 3.0 | 0.01 | 0.37 | 0.37 | 95 | 1004.8 |
| 20260506204534 | 58 | 0 | 1.0 | 4.0 | 0.01 | 0.37 | 0.37 | 95 | 1004.9 |
| 20260506203057 | 58 | 275 | 2.0 | 12.0 | 0.01 | 0.37 | 0.37 | 93 | 1005.0 |
| 20260506201532 | 59 | 213 | 1.0 | 7.0 | 0.01 | 0.37 | 0.37 | 95 | 1005.1 |
| 20260506200044 | 59 | 166 | 1.0 | 4.0 | 0.03 | 0.36 | 0.36 | 94 | 1005.1 |
| 20260506194531 | 59 | 205 | 1.0 | 3.0 | 0.05 | 0.36 | 0.36 | 95 | 1005.2 |
| 20260506193032 | 59 | 130 | 0.0 | 2.0 | 0.09 | 0.36 | 0.36 | 97 | 1005.3 |
| 20260506191530 | 58 | 145 | 0.0 | 1.0 | 0.12 | 0.36 | 0.36 | 97 | 1005.3 |
| 20260506190044 | 58 | 0 | 0.0 | 1.0 | 0.13 | 0.33 | 0.33 | 96 | 1005.8 |
| 20260506184531 | 58 | 0 | 0.0 | 1.0 | 0.13 | 0.30 | 0.30 | 96 | 1005.8 |
| 20260506183031 | 58 | 264 | 0.0 | 4.0 | 0.14 | 0.26 | 0.26 | 95 | 1006.2 |
| 20260506181534 | 58 | 194 | 0.0 | 2.0 | 0.16 | 0.23 | 0.23 | 95 | 1006.2 |
| 20260506180035 | 58 | 0 | 0.0 | 2.0 | 0.16 | 0.20 | 0.20 | 95 | 1006.8 |
| 20260506174535 | 58 | 217 | 0.0 | 2.0 | 0.15 | 0.17 | 0.17 | 95 | 1007.2 |
| 20260506173039 | 58 | 170 | 0.0 | 1.0 | 0.12 | 0.12 | 0.12 | 94 | 1007.2 |
| 20260506171534 | 59 | 0 | 0.0 | 3.0 | 0.07 | 0.07 | 0.07 | 93 | 1007.1 |
| 20260506170032 | 59 | 0 | 0.0 | 3.0 | 0.04 | 0.04 | 0.04 | 92 | 1007.1 |
| 20260506164536 | 60 | 207 | 0.0 | 2.0 | 0.02 | 0.02 | 0.02 | 90 | 1007.2 |
| 20260506163050 | 60 | 232 | 0.0 | 3.0 | 0.00 | 0.00 | 0.00 | 86 | 1007.3 |
| 20260506161531 | 61 | 231 | 0.0 | 2.0 | 0.00 | 0.00 | 0.00 | 85 | 1007.5 |
| 20260506160036 | 61 | 258 | 1.0 | 6.0 | 0.00 | 0.00 | 0.00 | 83 | 1007.6 |
| 20260506154537 | 61 | 267 | 0.0 | 4.0 | 0.00 | 0.00 | 0.00 | 84 | 1007.8 |
| 20260506153032 | 61 | 0 | 1.0 | 4.0 | 0.00 | 0.00 | 0.00 | 85 | 1008.1 |
| 20260506151538 | 61 | 266 | 1.0 | 7.0 | 0.00 | 0.00 | 0.00 | 82 | 1008.5 |
| 20260506150035 | 61 | 178 | 1.0 | 4.0 | 0.00 | 0.00 | 0.00 | 80 | 1008.6 |
| 20260506144532 | 62 | 242 | 1.0 | 3.0 | 0.00 | 0.00 | 0.00 | 78 | 1008.3 |
| 20260506143032 | 62 | 268 | 1.0 | 2.0 | 0.00 | 0.00 | 0.00 | 78 | 1008.1 |
| 20260506141529 | 61 | 216 | 1.0 | 4.0 | 0.00 | 0.00 | 0.00 | 79 | 1008.2 |
| 20260506140037 | 61 | 192 | 1.0 | 4.0 | 0.00 | 0.00 | 0.00 | 81 | 1008.3 |
| 20260506134532 | 60 | 223 | 1.0 | 3.0 | 0.00 | 0.00 | 0.00 | 82 | 1008.2 |
| 20260506133033 | 59 | 245 | 1.0 | 3.0 | 0.00 | 0.00 | 0.00 | 83 | 1008.3 |
| 20260506131536 | 59 | 252 | 1.0 | 6.0 | 0.00 | 0.00 | 0.00 | 84 | 1008.5 |
| 20260506130033 | 58 | 250 | 1.0 | 4.0 | 0.00 | 0.00 | 0.00 | 84 | 1009.0 |
| 20260506124532 | 58 | 327 | 1.0 | 2.0 | 0.00 | 0.00 | 0.00 | 84 | 1008.7 |
| 20260506123032 | 58 | 234 | 0.0 | 3.0 | 0.00 | 0.00 | 0.00 | 84 | 1008.5 |
| 20260506121538 | 58 | 0 | 0.0 | 4.0 | 0.00 | 0.00 | 0.00 | 84 | 1008.2 |
| 20260506120034 | 58 | 238 | 0.0 | 2.0 | 0.00 | 0.00 | 0.00 | 85 | 1008.7 |
| 20260506114531 | 57 | 174 | 0.0 | 1.0 | 0.00 | 0.00 | 0.00 | 86 | 1008.7 |
| 20260506113030 | 57 | 157 | 0.0 | 2.0 | 0.00 | 0.00 | 0.00 | 86 | 1008.7 |
| 20260506111534 | 56 | 240 | 0.0 | 1.0 | 0.00 | 0.00 | 0.00 | 88 | 1008.9 |
| 20260506110036 | 54 | 236 | 0.0 | 3.0 | 0.00 | 0.00 | 0.00 | 90 | 1008.7 |
| 20260506104534 | 52 | 0 | 0.0 | 1.0 | 0.00 | 0.00 | 0.00 | 91 | 1008.6 |
| 20260506103031 | 52 | 0 | 0.0 | 1.0 | 0.00 | 0.00 | 0.00 | 91 | 1008.7 |
| 20260506101533 | 51 | 0 | 0.0 | 1.0 | 0.00 | 0.00 | 0.00 | 92 | 1008.9 |
| 20260506100031 | 50 | 0 | 0.0 | 1.0 | 0.00 | 0.00 | 0.00 | 92 | 1009.1 |
| 20260506094532 | 50 | 0 | 0.0 | 0.0 | 0.00 | 0.00 | 0.00 | 91 | 1008.8 |
| 20260506093032 | 50 | 0 | 0.0 | 0.0 | 0.00 | 0.00 | 0.00 | 90 | 1008.6 |
| 20260506091534 | 51 | 0 | 0.0 | 0.0 | 0.00 | 0.00 | 0.00 | 89 | 1008.8 |
| 20260506090033 | 52 | 0 | 0.0 | 0.0 | 0.00 | 0.00 | 0.00 | 87 | 1008.6 |
| 20260506084537 | 54 | 0 | 0.0 | 1.0 | 0.00 | 0.00 | 0.00 | 85 | 1008.9 |
| 20260506083032 | 54 | 0 | 0.0 | 1.0 | 0.00 | 0.00 | 0.00 | 85 | 1008.9 |
| 20260506081540 | 54 | 0 | 0.0 | 1.0 | 0.00 | 0.00 | 0.00 | 85 | 1009.1 |
| 20260506073035 | 55 | 0 | 0.0 | 0.0 | 0.00 | 0.00 | 0.00 | 83 | 1009.3 |
| 20260506071531 | 55 | 0 | 0.0 | 1.0 | 0.00 | 0.00 | 0.00 | 83 | 1009.1 |
| 20260506061535 | 56 | 0 | 0.0 | 1.0 | 0.00 | 0.00 | 0.00 | 81 | 1009.1 |
| 20260506044538 | 59 | 0 | 0.0 | 1.0 | 0.00 | 0.00 | 0.00 | 78 | 1009.2 |
| 20260506043031 | 60 | 0 | 0.0 | 1.0 | 0.00 | 0.00 | 0.00 | 77 | 1009.3 |
| 20260506041549 | 60 | 0 | 0.0 | 1.0 | 0.00 | 0.00 | 0.00 | 76 | 1009.1 |
| 20260506040035 | 60 | 166 | 0.0 | 2.0 | 0.00 | 0.00 | 0.00 | 77 | 1009.2 |
| 20260506034546 | 61 | 238 | 0.0 | 3.0 | 0.00 | 0.00 | 0.00 | 78 | 1009.3 |
| 20260506033036 | 61 | 0 | 0.0 | 0.0 | 0.00 | 0.00 | 0.00 | 78 | 1009.3 |